Miscellaneous Local Product
Issued by NWS North Platte, NE

Home | Current Version | Previous Version | Text Only | Print | Product List | Glossary On
Versions: 1 2 3 4 5 6 7 8 9 10 11 12 13 14 15 16 17 18 19 20 21 22 23 24 25 26 27 28 29 30 31 32 33 34 35 36 37 38 39 40 41 42 43 44 45 46 47 48 49 50
000
AXUS43 KLBF 041810
MISLBF


WESTERN AND NORTH CENTRAL NEBRASKA HOURLY WEATHER ROUNDUP
NATIONAL WEATHER SERVICE NORTH PLATTE NE
100 PM CDT TUE AUG 04 2015

***STATIONS NOT REPORTING VARIABLES SUCH AS SKY/WEATHER OR
PRESSURE ARE PROVIDED BY THE NEBRASKA DEPARTMENT OF
ROADS...RAWS...AND APRS NETWORKS...AND ARE NOT UNDER
NATIONAL WEATHER SERVICE QUALITY CONTROL***

...OBSERVATIONS IN AND NEAR THE EASTERN PANHANDLE OF NEBRASKA...

CITY           SKY/WX    TMP DP  RH WIND       PRES   REMARKS
PINE RIDGE     PTSUNNY   76  57  51 S21G31    29.94F
CHADRON        MOSUNNY   80  59  48 S23G32    29.95F
ALLIANCE       CLOUDY    69  63  81 SE18      30.02S
SIDNEY         PTSUNNY   73  58  59 NE8       30.02S
BIG SPRINGS      N/A     62  60  95 CALM        N/A
$$

...OBSERVATIONS IN NORTH CENTRAL NEBRASKA...

CITY           SKY/WX    TMP DP  RH WIND       PRES   REMARKS
THEDFORD       PTSUNNY   75  59  57 SE13G20   29.97F
AINSWORTH      MOSUNNY   77  60  54 SE9       29.94R
O`NEILL        CLOUDY    74  66  74 E10       29.97R
ORD            CLOUDY    78  62  57 SE15G24   29.93F
BROKEN BOW     PTSUNNY   79  59  50 SE15G24   29.97F
SPRINGVIEW       N/A     79  64  59 E6G13       N/A
CHAMBERS         N/A     75  65  72 W3G13       N/A
EWING            N/A     74  67  77 E6G13       N/A
$$

...OBSERVATIONS IN SOUTHWEST NEBRASKA AND FAR NORTHEAST COLORADO...

CITY           SKY/WX    TMP DP  RH WIND       PRES   REMARKS
WRAY           FAIR      87  57  36 E3        29.96S
HOLYOKE        FAIR      70  63  78 NE7       29.99R
IMPERIAL       TSTM      63  59  87 NW23G38   30.05R FOG
OGALLALA       CLOUDY    66  65  97 E16       30.01R VSB 1
NORTH PLATTE   LGT RAIN  67  64  90 N3        29.99R
MCCOOK         CLOUDY    68  63  84 E23G31    29.93F
LEXINGTON      CLOUDY    76  65  70 E16       29.97R
PAXTON           N/A     66  64  95 E3          N/A
BRADY            N/A     70  65  83 MISG        N/A
CALLAWAY         N/A     70  64  82 SE14        N/A
$$

...NORTH PLATTE AREA...

CITY           SKY/WX    TMP DP  RH WIND       PRES   REMARKS
AIRPORT        LGT RAIN  67  64  90 N3        29.99R
DOWNTOWN         N/A     66  64  94 N5          N/A
HILLCREST        N/A     66  64  94 NW3G12      N/A
$$

...SOME WEATHER OBSERVATIONS FROM AROUND THE REGION...

CITY           SKY/WX    TMP DP  RH WIND       PRES   REMARKS
DENVER         MOSUNNY   83  41  22 W7        30.07F
LARAMIE        CLOUDY    64  48  56 W21G30    30.21S
CHEYENNE       CLOUDY    71  47  42 W20G26    30.13S
SCOTTSBLUFF    MOSUNNY   78  55  44 E8        30.00F
RAPID CITY     PTSUNNY   76  64  66 S13       29.96F
PIERRE         PTSUNNY   80  59  48 SE12      29.94S
WINNER         FAIR      77  65  66 NE8       29.96R
SIOUX FALLS    CLOUDY    75  61  61 E12       29.99R
OMAHA          CLOUDY    71  64  78 SE13      29.95F
GRAND ISLAND   CLOUDY    77  64  64 SE15      29.97F
KANSAS CITY    CLOUDY    82  72  71 E14       30.00F
WICHITA        CLOUDY    78  69  73 SE13      29.98F
HAYS           MOSUNNY   86  63  45 S10       29.92F
LIBERAL        SUNNY     82  64  54 S9G16     29.96F
GOODLAND       MOSUNNY   84  61  45 S10G17    29.93F
$$



USA.gov is the U.S. government's official web portal to all federal, state and local government web resources and services.